Location: Feigenhofen
(48.4939°N, 10.7793°E)
Time: 15:37:55
(UTC+00:00)

Cosmos 1269 Rocket - Pass Details

Date: 26 May 2022
Orbit: 773 x 778 km, 74.1° (Epoch: 29 June)

Event Time Altitude Azimuth Distance (km) Brightness Sun altitude
Rises 00:43:11 0° 337° (NNW) 3,261 8.0 -17.6°
Reaches altitude 10° 00:45:34 10° 337° (NNW) 2,330 7.1 -17.5°
Maximum altitude 00:50:52 88° 65° (ENE) 781 4.0 -17.1°
Enters shadow 00:55:07 16° 158° (SSE) 1,923 5.7 -16.8°
